SVA179 EDDF-OERK

Flight info

Callsign SVA179
Flight time 5h 52m
Altitude 37000
Route CINDY8S/18 CINDY Z74 LAMPU DCT NOMBO Y161 MAH DCT VAVOR DCT RADIZ DCT NEMEK DCT ELTIB DCT GLOMY/N0463F390 DCT PETAK DCT DIMIS UL604 SALUN N705 MMA L613 KIVIL N710 TAKRI M720 FYM M872 WEJ L604 GAS G662 SIVIS
Aircraft A333/H-SDE3GHIJ2J3J5M1RVWXY/LB2D1

Departure

Time 2026-05-05 15:12
Airport Frankfurt Main Airport (EDDF)

Arrival

Time 2026-05-05 21:05
Airport King Khalid International Airport (OERK)
Time Latitude Longitude Altitude Speed Heading
2026-05-05 14:35 50.04938 8.58179 365 ft 0 kts 340°
2026-05-05 14:57 50.04929 8.58184 365 ft 3 kts 340°
2026-05-05 14:57 50.04906 8.58196 368 ft 4 kts 340°
2026-05-05 14:58 50.04883 8.58208 369 ft 3 kts 340°
2026-05-05 14:58 50.04863 8.58219 369 ft 3 kts 330°
2026-05-05 14:58 50.04848 8.58241 369 ft 3 kts 276°
2026-05-05 14:58 50.04853 8.58273 367 ft 3 kts 240°
2026-05-05 14:59 50.04863 8.58302 367 ft 1 kts 248°
2026-05-05 15:02 50.04863 8.58301 363 ft 1 kts 248°
2026-05-05 15:02 50.04847 8.58235 367 ft 9 kts 250°
2026-05-05 15:02 50.04825 8.58145 371 ft 10 kts 250°
2026-05-05 15:03 50.04800 8.58043 367 ft 11 kts 246°
2026-05-05 15:03 50.04745 8.57942 366 ft 14 kts 222°
2026-05-05 15:03 50.04689 8.57825 368 ft 14 kts 247°
2026-05-05 15:03 50.04652 8.57664 368 ft 19 kts 250°
2026-05-05 15:04 50.04600 8.57448 365 ft 21 kts 250°
2026-05-05 15:04 50.04554 8.57250 369 ft 18 kts 250°
2026-05-05 15:04 50.04515 8.57086 364 ft 16 kts 250°
2026-05-05 15:04 50.04479 8.56936 368 ft 12 kts 249°
2026-05-05 15:05 50.04425 8.56712 365 ft 14 kts 249°
2026-05-05 15:05 50.04385 8.56548 365 ft 19 kts 249°
2026-05-05 15:05 50.04336 8.56345 361 ft 21 kts 248°
2026-05-05 15:06 50.04291 8.56154 364 ft 17 kts 248°
2026-05-05 15:06 50.04252 8.55994 365 ft 16 kts 250°
2026-05-05 15:06 50.04209 8.55811 362 ft 20 kts 249°
2026-05-05 15:06 50.04159 8.55607 362 ft 19 kts 249°
2026-05-05 15:07 50.04119 8.55435 362 ft 16 kts 250°
2026-05-05 15:07 50.04080 8.55276 364 ft 17 kts 250°
2026-05-05 15:07 50.04039 8.55101 360 ft 17 kts 249°
2026-05-05 15:07 50.03995 8.54917 363 ft 20 kts 250°
2026-05-05 15:08 50.03943 8.54700 358 ft 22 kts 249°
2026-05-05 15:08 50.03895 8.54499 359 ft 18 kts 249°
2026-05-05 15:08 50.03839 8.54322 358 ft 19 kts 235°
2026-05-05 15:08 50.03777 8.54127 354 ft 21 kts 251°
2026-05-05 15:09 50.03723 8.53899 352 ft 23 kts 250°
2026-05-05 15:09 50.03666 8.53666 350 ft 22 kts 249°
2026-05-05 15:09 50.03616 8.53463 352 ft 20 kts 249°
2026-05-05 15:09 50.03559 8.53230 346 ft 26 kts 249°
2026-05-05 15:10 50.03493 8.52954 336 ft 26 kts 250°
2026-05-05 15:10 50.03446 8.52779 335 ft 14 kts 248°
2026-05-05 15:10 50.03416 8.52657 336 ft 10 kts 249°
2026-05-05 15:10 50.03387 8.52603 335 ft 5 kts 212°
2026-05-05 15:11 50.03340 8.52593 338 ft 6 kts 180°
2026-05-05 15:11 50.03258 8.52592 334 ft 30 kts 180°
2026-05-05 15:11 50.02855 8.52596 337 ft 84 kts 179°
2026-05-05 15:11 50.02099 8.52606 336 ft 132 kts 179°
2026-05-05 15:12 50.01028 8.52618 338 ft 176 kts 182°
2026-05-05 15:12 49.99749 8.52641 878 ft 186 kts 182°
2026-05-05 15:12 49.98485 8.52673 1866 ft 176 kts 181°
2026-05-05 15:12 49.97273 8.52873 2721 ft 175 kts 165°
2026-05-05 15:13 49.96264 8.53874 3462 ft 180 kts 135°
2026-05-05 15:13 49.95509 8.55552 3882 ft 203 kts 123°
2026-05-05 15:13 49.94780 8.57575 4005 ft 235 kts 120°
2026-05-05 15:13 49.94116 8.60096 3983 ft 270 kts 104°
2026-05-05 15:14 49.93873 8.63164 3966 ft 301 kts 95°
2026-05-05 15:14 49.93739 8.66584 3961 ft 333 kts 97°
2026-05-05 15:14 49.93037 8.70118 3965 ft 354 kts 121°
2026-05-05 15:14 49.91493 8.72829 4019 ft 328 kts 145°
2026-05-05 15:15 49.89670 8.74682 4614 ft 301 kts 148°
2026-05-05 15:15 49.88165 8.76881 5360 ft 295 kts 128°
2026-05-05 15:15 49.87065 8.79502 6495 ft 284 kts 123°
2026-05-05 15:15 49.86080 8.82105 7530 ft 276 kts 122°
2026-05-05 15:16 49.85129 8.84686 8335 ft 276 kts 122°
2026-05-05 15:16 49.84176 8.87292 8830 ft 278 kts 121°
2026-05-05 15:16 49.83231 8.89886 9518 ft 281 kts 121°
2026-05-05 15:16 49.82263 8.92543 10179 ft 288 kts 121°
2026-05-05 15:17 49.81246 8.95332 10431 ft 306 kts 121°
2026-05-05 15:17 49.80165 8.98292 10670 ft 325 kts 121°
2026-05-05 15:17 49.79019 9.01434 10897 ft 343 kts 121°
2026-05-05 15:17 49.77816 9.04733 11153 ft 359 kts 121°
2026-05-05 15:18 49.76609 9.08173 11566 ft 369 kts 117°
2026-05-05 15:18 49.75739 9.11931 11812 ft 373 kts 107°
2026-05-05 15:18 49.75067 9.15829 12271 ft 377 kts 109°
2026-05-05 15:18 49.74022 9.19544 12975 ft 376 kts 123°
2026-05-05 15:19 49.72561 9.22848 13690 ft 377 kts 129°
2026-05-05 15:19 49.70897 9.25998 14275 ft 380 kts 132°
2026-05-05 15:19 49.69126 9.29068 14830 ft 384 kts 134°
2026-05-05 15:19 49.67306 9.32126 15378 ft 387 kts 134°
2026-05-05 15:20 49.65479 9.35197 15921 ft 390 kts 134°
2026-05-05 15:20 49.63645 9.38308 16457 ft 393 kts 134°
2026-05-05 15:20 49.61622 9.41169 16956 ft 395 kts 143°
2026-05-05 15:20 49.59380 9.43632 17491 ft 397 kts 147°
2026-05-05 15:21 49.57050 9.45944 18017 ft 399 kts 149°
2026-05-05 15:21 49.54694 9.48138 18506 ft 401 kts 150°
2026-05-05 15:21 49.52282 9.50315 18948 ft 403 kts 151°
2026-05-05 15:21 49.49843 9.52496 19368 ft 406 kts 151°
2026-05-05 15:22 49.47391 9.54688 19798 ft 409 kts 151°
2026-05-05 15:22 49.44925 9.56905 20223 ft 411 kts 150°
2026-05-05 15:22 49.42446 9.59143 20657 ft 414 kts 150°
2026-05-05 15:22 49.39958 9.61396 21054 ft 416 kts 150°
2026-05-05 15:23 49.37456 9.63665 21469 ft 419 kts 150°
2026-05-05 15:23 49.34992 9.66075 21874 ft 422 kts 145°
2026-05-05 15:23 49.32746 9.68904 22298 ft 425 kts 140°
2026-05-05 15:23 49.30559 9.71987 22734 ft 427 kts 138°
2026-05-05 15:24 49.28422 9.75169 23156 ft 430 kts 137°
2026-05-05 15:24 49.26298 9.78420 23557 ft 432 kts 136°
2026-05-05 15:24 49.24175 9.81702 23860 ft 435 kts 136°
2026-05-05 15:24 49.22035 9.85005 24174 ft 438 kts 136°
2026-05-05 15:25 49.19883 9.88311 24541 ft 439 kts 136°
2026-05-05 15:25 49.17718 9.91620 24910 ft 440 kts 137°
2026-05-05 15:25 49.15544 9.94926 25263 ft 442 kts 137°
2026-05-05 15:25 49.13354 9.98244 25609 ft 444 kts 137°
2026-05-05 15:26 49.11155 10.01568 25963 ft 445 kts 137°
2026-05-05 15:26 49.08973 10.04860 26296 ft 447 kts 137°
2026-05-05 15:26 49.06753 10.08202 26665 ft 448 kts 137°
2026-05-05 15:26 49.04502 10.11500 27033 ft 449 kts 138°
2026-05-05 15:27 49.02218 10.14759 27382 ft 451 kts 139°
2026-05-05 15:27 48.99912 10.18007 27706 ft 452 kts 139°
2026-05-05 15:27 48.97588 10.21263 28065 ft 454 kts 139°
2026-05-05 15:27 48.95258 10.24527 28383 ft 456 kts 139°
2026-05-05 15:28 48.92945 10.27774 28690 ft 457 kts 139°
2026-05-05 15:28 48.90608 10.31062 29098 ft 457 kts 139°
2026-05-05 15:28 48.88283 10.34338 29606 ft 455 kts 139°
2026-05-05 15:28 48.85966 10.37603 30088 ft 452 kts 139°
2026-05-05 15:29 48.83663 10.40845 30446 ft 451 kts 139°
2026-05-05 15:29 48.81414 10.44166 30762 ft 452 kts 137°
2026-05-05 15:29 48.79220 10.47605 31085 ft 452 kts 136°
2026-05-05 15:29 48.77068 10.51079 31417 ft 452 kts 136°
2026-05-05 15:30 48.74926 10.54566 31669 ft 452 kts 136°
2026-05-05 15:30 48.72776 10.58058 31946 ft 453 kts 136°
2026-05-05 15:30 48.70621 10.61537 32271 ft 453 kts 136°
2026-05-05 15:30 48.68459 10.65005 32595 ft 452 kts 136°
2026-05-05 15:31 48.66297 10.68457 32906 ft 452 kts 137°
2026-05-05 15:31 48.64131 10.71901 33221 ft 452 kts 137°
2026-05-05 15:31 48.61958 10.75347 33536 ft 452 kts 137°
2026-05-05 15:31 48.59809 10.78750 33799 ft 452 kts 137°
2026-05-05 15:32 48.57641 10.82191 34036 ft 452 kts 137°
2026-05-05 15:32 48.55474 10.85648 34139 ft 455 kts 137°
2026-05-05 15:32 48.53304 10.89117 34409 ft 453 kts 137°
2026-05-05 15:32 48.51149 10.92565 34750 ft 450 kts 137°
2026-05-05 15:33 48.49000 10.95996 35043 ft 449 kts 138°
2026-05-05 15:33 48.46846 10.99392 35292 ft 448 kts 138°
2026-05-05 15:33 48.44678 11.02779 35502 ft 448 kts 138°
2026-05-05 15:33 48.42534 11.06119 36092 ft 437 kts 138°
2026-05-05 15:34 48.40448 11.09366 36730 ft 427 kts 139°
2026-05-05 15:34 48.38385 11.12572 37100 ft 423 kts 139°
2026-05-05 15:34 48.36335 11.15748 37283 ft 423 kts 139°
2026-05-05 15:35 48.32207 11.22126 37438 ft 427 kts 139°
2026-05-05 15:35 48.28078 11.28541 37561 ft 432 kts 136°
2026-05-05 15:35 48.26187 11.32075 37682 ft 437 kts 129°
2026-05-05 15:36 48.24513 11.35909 37293 ft 441 kts 126°
2026-05-05 15:36 48.22896 11.39900 36890 ft 452 kts 124°
2026-05-05 15:36 48.21835 11.42617 36819 ft 457 kts 124°
2026-05-05 15:37 48.18645 11.50967 36818 ft 464 kts 124°
2026-05-05 15:37 48.14909 11.60721 36804 ft 463 kts 124°
2026-05-05 15:38 48.12213 11.67678 36795 ft 463 kts 124°
2026-05-05 15:38 48.08951 11.76033 36792 ft 464 kts 124°
2026-05-05 15:39 48.05682 11.84370 36782 ft 464 kts 124°
2026-05-05 15:39 48.02436 11.92629 36776 ft 464 kts 124°
2026-05-05 15:40 47.99149 12.00965 36770 ft 467 kts 124°
2026-05-05 15:40 47.95841 12.09328 36767 ft 468 kts 124°
2026-05-05 15:41 47.92006 12.16930 36814 ft 444 kts 140°
2026-05-05 15:41 47.89816 12.19994 36788 ft 419 kts 142°
2026-05-05 15:41 47.87699 12.22778 36776 ft 393 kts 144°
2026-05-05 15:41 47.85676 12.25343 36770 ft 370 kts 145°
2026-05-05 15:42 47.83758 12.27729 36759 ft 348 kts 146°
2026-05-05 15:42 47.81938 12.29974 36763 ft 334 kts 146°
2026-05-05 15:42 47.80160 12.32157 36764 ft 329 kts 146°
2026-05-05 15:43 47.76711 12.36404 36749 ft 315 kts 146°
2026-05-05 15:43 47.75076 12.38430 36741 ft 304 kts 146°
2026-05-05 15:43 47.73473 12.40424 36764 ft 296 kts 147°
2026-05-05 15:43 47.71913 12.42365 36762 ft 289 kts 147°
2026-05-05 15:44 47.70387 12.44263 36755 ft 282 kts 147°
2026-05-05 15:44 47.68912 12.46098 36761 ft 272 kts 147°
2026-05-05 15:44 47.67484 12.47874 36762 ft 264 kts 147°
2026-05-05 15:44 47.66092 12.49603 36738 ft 256 kts 147°
2026-05-05 15:45 47.64761 12.51270 36756 ft 245 kts 148°
2026-05-05 15:45 47.63498 12.52853 36732 ft 236 kts 148°
2026-05-05 15:45 47.62256 12.54392 36670 ft 229 kts 149°
2026-05-05 15:45 47.61028 12.55880 36475 ft 227 kts 150°
2026-05-05 15:46 47.59781 12.57317 36255 ft 227 kts 152°
2026-05-05 15:46 47.58503 12.58672 36076 ft 223 kts 155°
2026-05-05 15:46 47.57210 12.59893 35956 ft 217 kts 158°
2026-05-05 15:46 47.55923 12.60975 35741 ft 212 kts 160°
2026-05-05 15:47 47.54617 12.62014 35396 ft 216 kts 161°
2026-05-05 15:47 47.53273 12.63082 35151 ft 219 kts 160°
2026-05-05 15:47 47.51955 12.64160 35100 ft 213 kts 161°
2026-05-05 15:47 47.50658 12.65193 34949 ft 211 kts 162°
2026-05-05 15:48 47.49329 12.66176 34694 ft 215 kts 164°
2026-05-05 15:48 47.47972 12.67085 34553 ft 212 kts 167°
2026-05-05 15:48 47.46641 12.67871 34504 ft 205 kts 170°
2026-05-05 15:48 47.45306 12.68534 34388 ft 201 kts 174°
2026-05-05 15:49 47.43949 12.69042 34192 ft 201 kts 179°
2026-05-05 15:49 47.42578 12.69348 34038 ft 196 kts 185°
2026-05-05 15:49 47.41240 12.69421 33951 ft 189 kts 191°
2026-05-05 15:49 47.39944 12.69292 33841 ft 184 kts 196°
2026-05-05 15:50 47.38697 12.68946 33652 ft 181 kts 203°
2026-05-05 15:50 47.37526 12.68366 33510 ft 178 kts 210°
2026-05-05 15:50 47.36441 12.67543 33419 ft 172 kts 218°
2026-05-05 15:50 47.35501 12.66484 33278 ft 169 kts 227°
2026-05-05 15:51 47.34748 12.65166 33108 ft 168 kts 238°
2026-05-05 15:51 47.34247 12.63601 32927 ft 170 kts 251°
2026-05-05 15:51 47.34066 12.61876 32785 ft 173 kts 265°
2026-05-05 15:51 47.34245 12.60093 32639 ft 180 kts 280°
2026-05-05 15:52 47.34796 12.58401 32505 ft 188 kts 296°
2026-05-05 15:52 47.35704 12.56964 32359 ft 197 kts 313°
2026-05-05 15:52 47.36914 12.55952 32169 ft 209 kts 331°
2026-05-05 15:52 47.38368 12.55474 32016 ft 220 kts 349°
2026-05-05 15:53 47.39918 12.55641 31899 ft 227 kts
2026-05-05 15:53 47.41408 12.56456 31782 ft 231 kts 26°
2026-05-05 15:53 47.42714 12.57858 31645 ft 234 kts 45°
2026-05-05 15:53 47.43732 12.59720 31542 ft 232 kts 62°
2026-05-05 15:54 47.44389 12.61844 31459 ft 225 kts 79°
2026-05-05 15:54 47.44649 12.64094 31315 ft 221 kts 96°
2026-05-05 15:54 47.44505 12.66304 31214 ft 211 kts 113°
2026-05-05 15:54 47.44007 12.68273 31122 ft 199 kts 129°
2026-05-05 15:55 47.43221 12.69888 30955 ft 191 kts 144°
2026-05-05 15:55 47.42219 12.71082 30844 ft 183 kts 159°
2026-05-05 15:55 47.41109 12.71831 30865 ft 168 kts 171°
2026-05-05 15:55 47.39987 12.72211 30717 ft 165 kts 181°
2026-05-05 15:56 47.38842 12.72222 30519 ft 165 kts 192°
2026-05-05 15:56 47.37740 12.71830 30492 ft 159 kts 205°
2026-05-05 15:56 47.36798 12.71068 30529 ft 153 kts 218°
2026-05-05 15:56 47.36039 12.69949 30358 ft 158 kts 231°
2026-05-05 15:57 47.35510 12.68514 30225 ft 164 kts 245°
2026-05-05 15:57 47.35288 12.66862 30214 ft 166 kts 260°
2026-05-05 15:57 47.35432 12.65143 30146 ft 175 kts 277°
2026-05-05 15:57 47.35960 12.63459 30011 ft 188 kts 295°
2026-05-05 15:58 47.36873 12.62001 29923 ft 200 kts 314°
2026-05-05 15:58 47.38124 12.61003 29824 ft 210 kts 335°
2026-05-05 15:58 47.39588 12.60631 29745 ft 218 kts 356°
2026-05-05 15:58 47.41090 12.60965 29688 ft 220 kts 17°
2026-05-05 15:59 47.42468 12.61966 29582 ft 222 kts 37°
2026-05-05 15:59 47.43587 12.63514 29548 ft 218 kts 56°
2026-05-05 15:59 47.44340 12.65393 29441 ft 211 kts 75°
2026-05-05 15:59 47.44684 12.67459 29251 ft 204 kts 95°
2026-05-05 16:00 47.44554 12.69478 29118 ft 193 kts 117°
2026-05-05 16:00 47.43975 12.71175 29064 ft 179 kts 140°
2026-05-05 16:00 47.43067 12.72289 29067 ft 164 kts 163°
2026-05-05 16:00 47.42014 12.72670 28971 ft 156 kts 187°
2026-05-05 16:01 47.40991 12.72266 28872 ft 153 kts 212°
2026-05-05 16:01 47.40257 12.71145 28817 ft 155 kts 238°
2026-05-05 16:01 47.39995 12.69570 28749 ft 166 kts 263°
2026-05-05 16:01 47.40285 12.67857 28682 ft 181 kts 289°
2026-05-05 16:02 47.41145 12.66421 28614 ft 196 kts 318°
2026-05-05 16:02 47.42454 12.65665 28488 ft 211 kts 347°
2026-05-05 16:02 47.43938 12.65801 28404 ft 216 kts 15°
2026-05-05 16:02 47.45235 12.66816 28325 ft 213 kts 44°
2026-05-05 16:03 47.46133 12.68550 28167 ft 213 kts 73°
2026-05-05 16:03 47.46441 12.70607 28199 ft 197 kts 102°
2026-05-05 16:03 47.46132 12.72455 28238 ft 178 kts 131°
2026-05-05 16:03 47.45324 12.73729 28110 ft 167 kts 160°
2026-05-05 16:04 47.44255 12.74123 28082 ft 154 kts 191°
2026-05-05 16:04 47.43310 12.73537 28078 ft 149 kts 222°
2026-05-05 16:04 47.42799 12.72161 27937 ft 165 kts 254°
2026-05-05 16:04 47.42959 12.70443 27870 ft 182 kts 288°
2026-05-05 16:05 47.43841 12.69043 27890 ft 196 kts 323°
2026-05-05 16:05 47.45204 12.68528 27747 ft 214 kts 359°
2026-05-05 16:05 47.46652 12.69132 27688 ft 219 kts 33°
2026-05-05 16:05 47.47697 12.70672 27788 ft 207 kts 68°
2026-05-05 16:06 47.48068 12.72636 27692 ft 195 kts 102°
2026-05-05 16:06 47.47690 12.74466 27481 ft 180 kts 137°
2026-05-05 16:06 47.46750 12.75463 27411 ft 161 kts 175°
2026-05-05 16:06 47.45721 12.75270 27465 ft 148 kts 214°
2026-05-05 16:07 47.45157 12.74006 27317 ft 163 kts 257°
2026-05-05 16:07 47.45493 12.72274 27107 ft 195 kts 302°
2026-05-05 16:07 47.46671 12.71247 27177 ft 210 kts 347°
2026-05-05 16:07 47.48107 12.71622 27161 ft 216 kts 33°
2026-05-05 16:08 47.49068 12.73266 26970 ft 211 kts 79°
2026-05-05 16:08 47.49093 12.75264 26832 ft 184 kts 120°
2026-05-05 16:08 47.48392 12.76695 26835 ft 160 kts 156°
2026-05-05 16:08 47.47411 12.77114 26672 ft 145 kts 193°
2026-05-05 16:09 47.46516 12.76337 26382 ft 161 kts 232°
2026-05-05 16:09 47.46294 12.74741 26566 ft 165 kts 275°
2026-05-05 16:09 47.46963 12.73301 26562 ft 188 kts 318°
2026-05-05 16:09 47.48315 12.72745 26301 ft 217 kts
2026-05-05 16:10 47.49664 12.73544 26326 ft 209 kts 47°
2026-05-05 16:10 47.50344 12.75303 26169 ft 193 kts 91°
2026-05-05 16:10 47.50070 12.77137 25903 ft 181 kts 136°
2026-05-05 16:10 47.49107 12.78023 26045 ft 152 kts 183°
2026-05-05 16:11 47.48221 12.77444 26016 ft 148 kts 234°
2026-05-05 16:11 47.50514 12.74871 25491 ft 203 kts 40°
2026-05-05 16:12 47.51236 12.76607 25196 ft 201 kts 95°
2026-05-05 16:12 47.49874 12.78623 25237 ft 148 kts 209°
2026-05-05 16:13 47.51346 12.75471 24681 ft 210 kts 16°
2026-05-05 16:13 47.52527 12.76679 24645 ft 202 kts 65°
2026-05-05 16:13 47.52790 12.78475 24812 ft 167 kts 116°
2026-05-05 16:14 47.51112 12.79304 24503 ft 158 kts 227°
2026-05-05 16:14 47.51998 12.76584 24465 ft 209 kts 349°
2026-05-05 16:15 47.53930 12.78939 24494 ft 182 kts 108°
2026-05-05 16:15 47.52358 12.80049 24322 ft 155 kts 226°
2026-05-05 16:16 47.53189 12.77224 24290 ft 205 kts 347°
2026-05-05 16:16 47.55136 12.79456 24243 ft 184 kts 105°
2026-05-05 16:17 47.53581 12.80662 24192 ft 154 kts 224°
2026-05-05 16:17 47.53371 12.79090 24158 ft 178 kts 285°
2026-05-05 16:18 47.55714 12.78249 24127 ft 204 kts 45°
2026-05-05 16:18 47.56317 12.79967 24075 ft 184 kts 103°
2026-05-05 16:18 47.54784 12.81253 24037 ft 149 kts 225°
2026-05-05 16:19 47.54591 12.79692 23931 ft 180 kts 285°
2026-05-05 16:19 47.55585 12.78445 23900 ft 204 kts 347°
2026-05-05 16:19 47.57595 12.80541 23904 ft 184 kts 99°
2026-05-05 16:20 47.56105 12.81887 23719 ft 156 kts 224°
2026-05-05 16:20 47.56820 12.78694 23150 ft 241 kts 328°
2026-05-05 16:21 47.60681 12.77437 23119 ft 271 kts 349°
2026-05-05 16:22 47.66078 12.77707 23756 ft 295 kts 26°
2026-05-05 16:22 47.69851 12.80438 24011 ft 313 kts 45°
2026-05-05 16:23 47.71589 12.86185 24079 ft 320 kts 98°
2026-05-05 16:23 47.71140 12.89437 24078 ft 327 kts 113°
2026-05-05 16:23 47.69508 12.94709 24074 ft 348 kts 131°
2026-05-05 16:24 47.67891 12.97468 24065 ft 360 kts 139°
2026-05-05 16:24 47.66036 13.00096 24056 ft 375 kts 142°
2026-05-05 16:24 47.61907 13.05255 24134 ft 399 kts 144°
2026-05-05 16:25 47.59727 13.07889 24226 ft 408 kts 144°
2026-05-05 16:25 47.55260 13.13342 24615 ft 420 kts 143°
2026-05-05 16:25 47.53016 13.16120 25047 ft 421 kts 143°
2026-05-05 16:26 47.48543 13.21689 25841 ft 425 kts 143°
2026-05-05 16:26 47.43995 13.27346 26642 ft 429 kts 143°
2026-05-05 16:27 47.41704 13.30189 27035 ft 431 kts 143°
2026-05-05 16:27 47.39394 13.33053 27371 ft 434 kts 143°
2026-05-05 16:27 47.37074 13.35924 27744 ft 436 kts 143°
2026-05-05 16:27 47.34739 13.38807 28122 ft 439 kts 143°
2026-05-05 16:28 47.32387 13.41710 28336 ft 444 kts 143°
2026-05-05 16:28 47.30026 13.44617 28637 ft 447 kts 143°
2026-05-05 16:28 47.27626 13.47571 29034 ft 449 kts 143°
2026-05-05 16:28 47.25223 13.50526 29412 ft 451 kts 143°
2026-05-05 16:29 47.22807 13.53494 29759 ft 453 kts 143°
2026-05-05 16:29 47.20378 13.56472 30072 ft 456 kts 144°
2026-05-05 16:29 47.17930 13.59470 30210 ft 460 kts 144°
2026-05-05 16:29 47.15465 13.62488 30427 ft 462 kts 144°
2026-05-05 16:30 47.12986 13.65517 30724 ft 465 kts 144°
2026-05-05 16:30 47.10522 13.68527 30906 ft 468 kts 144°
2026-05-05 16:30 47.08011 13.71588 31053 ft 471 kts 144°
2026-05-05 16:30 47.05472 13.74677 31284 ft 475 kts 144°
2026-05-05 16:31 47.02916 13.77782 31523 ft 478 kts 144°
2026-05-05 16:31 47.00349 13.80898 31753 ft 481 kts 144°
2026-05-05 16:31 46.97763 13.84034 31991 ft 483 kts 144°
2026-05-05 16:31 46.95165 13.87182 32214 ft 486 kts 144°
2026-05-05 16:32 46.92559 13.90334 32498 ft 487 kts 144°
2026-05-05 16:32 46.89933 13.93509 32697 ft 490 kts 144°
2026-05-05 16:32 46.87301 13.96684 32889 ft 492 kts 144°
2026-05-05 16:32 46.84686 13.99834 33054 ft 494 kts 144°
2026-05-05 16:33 46.82022 14.03038 33176 ft 498 kts 143°
2026-05-05 16:33 46.79339 14.06262 33370 ft 500 kts 143°
2026-05-05 16:33 46.76646 14.09495 33638 ft 501 kts 143°
2026-05-05 16:33 46.73952 14.12725 33917 ft 501 kts 143°
2026-05-05 16:34 46.71261 14.15947 34163 ft 501 kts 143°
2026-05-05 16:34 46.68556 14.19182 34339 ft 502 kts 144°
2026-05-05 16:34 46.65849 14.22414 34586 ft 502 kts 144°
2026-05-05 16:34 46.63148 14.25634 34889 ft 501 kts 144°
2026-05-05 16:35 46.60489 14.28800 35156 ft 499 kts 144°
2026-05-05 16:35 46.57793 14.32004 35337 ft 500 kts 143°
2026-05-05 16:35 46.55096 14.35205 35581 ft 500 kts 143°
2026-05-05 16:35 46.52398 14.38404 35847 ft 499 kts 144°
2026-05-05 16:36 46.49708 14.41590 36118 ft 498 kts 143°
2026-05-05 16:36 46.47026 14.44762 36369 ft 497 kts 144°
2026-05-05 16:36 46.44334 14.47942 36563 ft 497 kts 144°
2026-05-05 16:36 46.41688 14.51064 36796 ft 497 kts 144°
2026-05-05 16:37 46.39005 14.54224 37050 ft 496 kts 144°
2026-05-05 16:37 46.36324 14.57377 37008 ft 496 kts 144°
2026-05-05 16:37 46.30959 14.63677 36990 ft 494 kts 144°
2026-05-05 16:38 46.25641 14.69907 36990 ft 490 kts 144°
2026-05-05 16:38 46.20369 14.76063 36982 ft 490 kts 144°
2026-05-05 16:39 46.15060 14.82246 36983 ft 490 kts 144°
2026-05-05 16:39 46.09741 14.88427 36981 ft 491 kts 144°
2026-05-05 16:40 46.04406 14.94611 36973 ft 492 kts 144°
2026-05-05 16:40 45.99108 15.00738 36973 ft 492 kts 144°
2026-05-05 16:41 45.93765 15.06901 36970 ft 492 kts 144°
2026-05-05 16:41 45.88423 15.13045 36969 ft 492 kts 144°
2026-05-05 16:42 45.83074 15.19182 37115 ft 493 kts 144°
2026-05-05 16:42 45.80397 15.22247 37323 ft 493 kts 144°
2026-05-05 16:42 45.77716 15.25314 37552 ft 492 kts 144°
2026-05-05 16:43 45.75041 15.28370 37780 ft 491 kts 144°
2026-05-05 16:43 45.72370 15.31418 37979 ft 491 kts 144°
2026-05-05 16:43 45.69697 15.34463 38200 ft 491 kts 144°
2026-05-05 16:43 45.67061 15.37464 38386 ft 490 kts 144°
2026-05-05 16:44 45.64387 15.40503 38579 ft 490 kts 144°
2026-05-05 16:44 45.61717 15.43534 38735 ft 490 kts 144°
2026-05-05 16:44 45.59046 15.46563 38887 ft 490 kts 144°
2026-05-05 16:44 45.56376 15.49586 38967 ft 491 kts 145°
2026-05-05 16:45 45.51022 15.55637 38972 ft 490 kts 145°
2026-05-05 16:45 45.45706 15.61632 38973 ft 489 kts 145°
2026-05-05 16:46 45.40364 15.67639 38977 ft 489 kts 145°
2026-05-05 16:46 45.35014 15.73640 38979 ft 489 kts 145°
2026-05-05 16:47 45.29663 15.79629 38987 ft 489 kts 145°
2026-05-05 16:47 45.24313 15.85601 38984 ft 489 kts 145°
2026-05-05 16:48 45.18971 15.91550 38990 ft 488 kts 145°
2026-05-05 16:48 45.13662 15.97447 38990 ft 488 kts 145°
2026-05-05 16:49 45.08280 16.03409 38991 ft 490 kts 145°
2026-05-05 16:49 45.02917 16.09339 38989 ft 490 kts 145°
2026-05-05 16:50 44.97530 16.15280 38992 ft 490 kts 145°
2026-05-05 16:50 44.92166 16.21180 38995 ft 490 kts 145°
2026-05-05 16:51 44.86797 16.27071 38993 ft 491 kts 145°
2026-05-05 16:51 44.81412 16.32966 38996 ft 491 kts 145°
2026-05-05 16:52 44.75994 16.38883 38996 ft 491 kts 145°
2026-05-05 16:52 44.70610 16.44748 39000 ft 491 kts 145°
2026-05-05 16:53 44.65188 16.50640 38998 ft 492 kts 145°
2026-05-05 16:53 44.59794 16.56488 38999 ft 492 kts 146°
2026-05-05 16:54 44.54370 16.62355 39000 ft 492 kts 145°
2026-05-05 16:54 44.48919 16.68235 39007 ft 492 kts 145°
2026-05-05 16:55 44.43513 16.74054 39022 ft 492 kts 146°
2026-05-05 16:55 44.38083 16.79882 39024 ft 494 kts 146°
2026-05-05 16:56 44.32607 16.85748 39031 ft 494 kts 146°
2026-05-05 16:56 44.27186 16.91541 39033 ft 494 kts 146°
2026-05-05 16:57 44.21707 16.97382 39043 ft 494 kts 146°
2026-05-05 16:57 44.16247 17.03187 39039 ft 497 kts 146°
2026-05-05 16:58 44.10737 17.09033 39039 ft 498 kts 146°
2026-05-05 16:58 44.05205 17.14889 39041 ft 497 kts 146°
2026-05-05 16:59 43.99711 17.20690 39043 ft 497 kts 146°
2026-05-05 16:59 43.94214 17.26479 39051 ft 498 kts 146°
2026-05-05 17:00 43.88658 17.32315 39059 ft 499 kts 146°
2026-05-05 17:00 43.83141 17.38098 39058 ft 499 kts 146°
2026-05-05 17:01 43.77613 17.43881 39062 ft 498 kts 146°
2026-05-05 17:01 43.72060 17.49675 39065 ft 499 kts 146°
2026-05-05 17:02 43.66525 17.55435 39074 ft 500 kts 146°
2026-05-05 17:02 43.60943 17.61231 39061 ft 500 kts 146°
2026-05-05 17:03 43.55382 17.66968 39076 ft 499 kts 147°
2026-05-05 17:03 43.49725 17.72463 39077 ft 498 kts 149°
2026-05-05 17:04 43.44029 17.77844 39084 ft 500 kts 148°
2026-05-05 17:04 43.38261 17.83294 39074 ft 501 kts 148°
2026-05-05 17:05 43.32527 17.88731 39075 ft 501 kts 148°
2026-05-05 17:05 43.26804 17.94158 39076 ft 501 kts 148°
2026-05-05 17:06 43.21078 17.99576 39075 ft 501 kts 148°
2026-05-05 17:06 43.15324 18.05004 39089 ft 501 kts 148°
2026-05-05 17:07 43.09581 18.10410 39093 ft 501 kts 148°
2026-05-05 17:07 43.03846 18.15797 39077 ft 501 kts 149°
2026-05-05 17:08 42.98111 18.21171 39078 ft 501 kts 149°
2026-05-05 17:08 42.92366 18.26542 39089 ft 501 kts 149°
2026-05-05 17:09 42.86585 18.31933 39087 ft 501 kts 149°
2026-05-05 17:09 42.80858 18.37262 39092 ft 501 kts 149°
2026-05-05 17:10 42.75110 18.42598 39099 ft 501 kts 149°
2026-05-05 17:10 42.69310 18.47969 39097 ft 503 kts 149°
2026-05-05 17:11 42.63526 18.53314 39094 ft 504 kts 149°
2026-05-05 17:11 42.57707 18.58680 39078 ft 505 kts 149°
2026-05-05 17:12 42.52884 18.63118 39078 ft 505 kts 149°
2026-05-05 17:12 42.47073 18.68453 39066 ft 504 kts 149°
2026-05-05 17:13 42.40306 18.74650 39075 ft 504 kts 149°
2026-05-05 17:13 42.35429 18.79107 39088 ft 505 kts 149°
2026-05-05 17:14 42.29607 18.84416 39078 ft 507 kts 149°
2026-05-05 17:14 42.23768 18.89727 39073 ft 508 kts 149°
2026-05-05 17:15 42.17924 18.95033 39077 ft 508 kts 149°
2026-05-05 17:15 42.12046 19.00358 39075 ft 508 kts 149°
2026-05-05 17:16 42.06194 19.05646 39072 ft 508 kts 149°
2026-05-05 17:16 42.00342 19.10922 39061 ft 507 kts 148°
2026-05-05 17:17 41.94451 19.16221 39079 ft 509 kts 149°
2026-05-05 17:17 41.88538 19.21528 39078 ft 510 kts 149°
2026-05-05 17:18 41.82648 19.26803 39081 ft 510 kts 149°
2026-05-05 17:18 41.76745 19.32033 39081 ft 510 kts 150°
2026-05-05 17:19 41.70634 19.36887 39083 ft 509 kts 153°
2026-05-05 17:19 41.64490 19.41541 39089 ft 509 kts 153°
2026-05-05 17:20 41.58311 19.46237 39092 ft 509 kts 153°
2026-05-05 17:20 41.52192 19.50924 39083 ft 511 kts 152°
2026-05-05 17:21 41.46007 19.55670 39088 ft 512 kts 152°
2026-05-05 17:22 41.36761 19.62750 39092 ft 512 kts 152°
2026-05-05 17:22 41.30590 19.67461 39092 ft 512 kts 152°
2026-05-05 17:23 41.24390 19.72180 39103 ft 512 kts 152°
2026-05-05 17:23 41.18223 19.76865 39099 ft 512 kts 152°
2026-05-05 17:24 41.12039 19.81552 39102 ft 511 kts 152°
2026-05-05 17:24 41.05860 19.86225 39099 ft 514 kts 152°
2026-05-05 17:25 40.99630 19.90927 39094 ft 514 kts 152°
2026-05-05 17:25 40.93430 19.95597 39101 ft 514 kts 152°
2026-05-05 17:26 40.87228 20.00257 39104 ft 514 kts 152°
2026-05-05 17:26 40.80994 20.04930 39101 ft 514 kts 152°
2026-05-05 17:27 40.74764 20.09590 39104 ft 514 kts 152°
2026-05-05 17:27 40.68557 20.14225 39114 ft 514 kts 152°
2026-05-05 17:28 40.62312 20.18877 39109 ft 516 kts 152°
2026-05-05 17:28 40.56087 20.23501 39106 ft 516 kts 152°
2026-05-05 17:29 40.49830 20.28143 39117 ft 515 kts 152°
2026-05-05 17:29 40.43614 20.32745 39109 ft 514 kts 153°
2026-05-05 17:30 40.37403 20.37334 39108 ft 514 kts 153°
2026-05-05 17:30 40.31159 20.41935 39112 ft 513 kts 153°
2026-05-05 17:31 40.24917 20.46486 39114 ft 511 kts 154°
2026-05-05 17:31 40.18666 20.50855 39114 ft 513 kts 155°
2026-05-05 17:32 40.12332 20.55242 39117 ft 514 kts 154°
2026-05-05 17:32 40.06020 20.59632 39116 ft 514 kts 155°
2026-05-05 17:33 39.99726 20.64014 39119 ft 514 kts 155°
2026-05-05 17:33 39.93406 20.68410 39123 ft 514 kts 155°
2026-05-05 17:34 39.87080 20.72801 39113 ft 514 kts 155°
2026-05-05 17:34 39.80798 20.77152 39129 ft 514 kts 155°
2026-05-05 17:35 39.74482 20.81516 39143 ft 513 kts 155°
2026-05-05 17:35 39.68173 20.85862 39128 ft 516 kts 155°
2026-05-05 17:36 39.61793 20.90252 39119 ft 517 kts 156°
2026-05-05 17:36 39.55484 20.94585 39127 ft 515 kts 156°
2026-05-05 17:37 39.49131 20.98940 39124 ft 514 kts 156°
2026-05-05 17:37 39.42833 21.03247 39133 ft 514 kts 156°
2026-05-05 17:38 39.36496 21.07571 39121 ft 514 kts 156°
2026-05-05 17:38 39.30169 21.11880 39124 ft 513 kts 156°
2026-05-05 17:39 39.23879 21.16154 39125 ft 513 kts 156°
2026-05-05 17:39 39.17531 21.20459 39108 ft 515 kts 156°
2026-05-05 17:40 39.11217 21.24732 39115 ft 515 kts 156°
2026-05-05 17:40 39.04868 21.29020 39114 ft 515 kts 156°
2026-05-05 17:41 38.98504 21.33309 39110 ft 515 kts 156°
2026-05-05 17:41 38.92173 21.37568 39110 ft 515 kts 156°
2026-05-05 17:42 38.85856 21.41810 39104 ft 514 kts 156°
2026-05-05 17:42 38.79522 21.46053 39114 ft 514 kts 156°
2026-05-05 17:43 38.73176 21.50296 39110 ft 514 kts 156°
2026-05-05 17:43 38.66822 21.54534 39118 ft 515 kts 156°
2026-05-05 17:44 38.60467 21.58766 39114 ft 514 kts 156°
2026-05-05 17:44 38.54134 21.62974 39111 ft 514 kts 156°
2026-05-05 17:45 38.47763 21.67200 39113 ft 514 kts 156°
2026-05-05 17:45 38.41441 21.71384 39115 ft 514 kts 156°
2026-05-05 17:46 38.35094 21.75578 39119 ft 514 kts 156°
2026-05-05 17:46 38.28729 21.79774 39128 ft 514 kts 156°
2026-05-05 17:47 38.22350 21.83970 39115 ft 516 kts 156°
2026-05-05 17:47 38.15956 21.88168 39123 ft 517 kts 156°
2026-05-05 17:48 38.09595 21.92339 39126 ft 517 kts 156°
2026-05-05 17:48 38.03184 21.96531 39119 ft 517 kts 156°
2026-05-05 17:49 37.96810 22.00693 39126 ft 517 kts 156°
2026-05-05 17:49 37.90388 22.04876 39125 ft 517 kts 156°
2026-05-05 17:50 37.84020 22.09017 39128 ft 516 kts 157°
2026-05-05 17:50 37.77622 22.13168 39133 ft 515 kts 156°
2026-05-05 17:51 37.71243 22.17298 39133 ft 517 kts 157°
2026-05-05 17:51 37.64859 22.21425 39112 ft 517 kts 157°
2026-05-05 17:52 37.58435 22.25572 39114 ft 516 kts 157°
2026-05-05 17:52 37.52063 22.29675 39119 ft 516 kts 157°
2026-05-05 17:53 37.45653 22.33794 39115 ft 516 kts 157°
2026-05-05 17:53 37.39278 22.37883 39104 ft 516 kts 157°
2026-05-05 17:54 37.32865 22.41987 39108 ft 517 kts 157°
2026-05-05 17:54 37.26444 22.46089 39110 ft 517 kts 157°
2026-05-05 17:55 37.20029 22.50178 39104 ft 521 kts 157°
2026-05-05 17:55 37.13548 22.54303 39094 ft 521 kts 157°
2026-05-05 17:56 37.07068 22.58420 39099 ft 523 kts 157°
2026-05-05 17:56 37.00608 22.62517 39096 ft 523 kts 157°
2026-05-05 17:57 36.94099 22.66637 39094 ft 523 kts 157°
2026-05-05 17:57 36.87613 22.70733 39085 ft 523 kts 157°
2026-05-05 17:58 36.81127 22.74821 39086 ft 523 kts 157°
2026-05-05 17:58 36.74615 22.78918 39090 ft 523 kts 157°
2026-05-05 17:59 36.68122 22.82994 39084 ft 525 kts 157°
2026-05-05 17:59 36.61571 22.87100 39069 ft 526 kts 157°
2026-05-05 18:00 36.55066 22.91171 39095 ft 525 kts 157°
2026-05-05 18:00 36.48529 22.95250 39098 ft 524 kts 157°
2026-05-05 18:01 36.42044 22.99293 39098 ft 524 kts 157°
2026-05-05 18:01 36.35509 23.03360 39102 ft 524 kts 157°
2026-05-05 18:02 36.29008 23.07396 39101 ft 523 kts 157°
2026-05-05 18:02 36.23564 23.10770 39107 ft 523 kts 157°
2026-05-05 18:03 36.17029 23.14813 39100 ft 524 kts 157°
2026-05-05 18:03 36.10529 23.18827 39099 ft 524 kts 157°
2026-05-05 18:04 36.03985 23.22861 39101 ft 524 kts 157°
2026-05-05 18:04 35.97477 23.26866 39096 ft 524 kts 157°
2026-05-05 18:05 35.90927 23.30888 39099 ft 524 kts 157°
2026-05-05 18:05 35.84426 23.34873 39101 ft 524 kts 157°
2026-05-05 18:06 35.77874 23.38882 39100 ft 524 kts 157°
2026-05-05 18:06 35.71356 23.42863 39112 ft 524 kts 157°
2026-05-05 18:07 35.64804 23.46856 39110 ft 525 kts 157°
2026-05-05 18:07 35.58271 23.50832 39114 ft 526 kts 157°
2026-05-05 18:08 35.51685 23.54832 39121 ft 526 kts 157°
2026-05-05 18:08 35.45158 23.58789 39119 ft 526 kts 157°
2026-05-05 18:09 35.38585 23.62767 39112 ft 528 kts 157°
2026-05-05 18:09 35.31957 23.66769 39114 ft 531 kts 157°
2026-05-05 18:10 35.25355 23.70751 39115 ft 532 kts 157°
2026-05-05 18:10 35.18704 23.74752 39114 ft 532 kts 157°
2026-05-05 18:11 35.12044 23.78753 39111 ft 533 kts 157°
2026-05-05 18:11 35.05387 23.82746 39106 ft 533 kts 157°
2026-05-05 18:12 34.98758 23.86716 39114 ft 530 kts 157°
2026-05-05 18:12 34.92173 23.90651 39107 ft 528 kts 157°
2026-05-05 18:13 34.85595 23.94573 39109 ft 528 kts 157°
2026-05-05 18:13 34.78986 23.98507 39112 ft 528 kts 157°
2026-05-05 18:14 34.72370 24.02438 39105 ft 529 kts 157°
2026-05-05 18:14 34.65739 24.06371 39109 ft 529 kts 157°
2026-05-05 18:15 34.59154 24.10271 39105 ft 528 kts 157°
2026-05-05 18:15 34.52527 24.14188 39109 ft 528 kts 157°
2026-05-05 18:16 34.45949 24.18069 39107 ft 528 kts 157°
2026-05-05 18:16 34.39324 24.21971 39110 ft 529 kts 157°
2026-05-05 18:17 34.32732 24.25847 39116 ft 529 kts 157°
2026-05-05 18:17 34.26091 24.29744 39113 ft 529 kts 157°
2026-05-05 18:18 34.19492 24.33611 39112 ft 529 kts 157°
2026-05-05 18:18 34.12892 24.37471 39114 ft 529 kts 157°
2026-05-05 18:19 34.06282 24.41331 39114 ft 527 kts 157°
2026-05-05 18:19 33.99818 24.45586 39117 ft 529 kts 145°
2026-05-05 18:20 33.94336 24.51442 39101 ft 531 kts 134°
2026-05-05 18:20 33.89360 24.58075 39115 ft 532 kts 131°
2026-05-05 18:21 33.84573 24.64809 39114 ft 532 kts 130°
2026-05-05 18:21 33.79760 24.71603 39116 ft 532 kts 131°
2026-05-05 18:22 33.74954 24.78332 39115 ft 532 kts 131°
2026-05-05 18:22 33.70104 24.85082 39117 ft 532 kts 131°
2026-05-05 18:23 33.65285 24.91769 39118 ft 532 kts 131°
2026-05-05 18:23 33.60427 24.98499 39109 ft 532 kts 131°
2026-05-05 18:24 33.55593 25.05184 39121 ft 531 kts 131°
2026-05-05 18:24 33.50772 25.11840 39116 ft 530 kts 131°
2026-05-05 18:25 33.45939 25.18500 39115 ft 530 kts 131°
2026-05-05 18:25 33.41091 25.25168 39117 ft 530 kts 131°
2026-05-05 18:26 33.36235 25.31836 39110 ft 530 kts 131°
2026-05-05 18:26 33.31401 25.38461 39123 ft 529 kts 131°
2026-05-05 18:27 33.26566 25.45075 39120 ft 527 kts 131°
2026-05-05 18:27 33.21746 25.51656 39119 ft 527 kts 131°
2026-05-05 18:28 33.14500 25.61526 39119 ft 527 kts 131°
2026-05-05 18:28 33.09678 25.68081 39113 ft 527 kts 132°
2026-05-05 18:29 33.04832 25.74656 39116 ft 526 kts 132°
2026-05-05 18:29 33.00019 25.81174 39119 ft 526 kts 132°
2026-05-05 18:30 32.95172 25.87726 39118 ft 526 kts 132°
2026-05-05 18:30 32.90323 25.94269 39127 ft 526 kts 132°
2026-05-05 18:31 32.85495 26.00774 39121 ft 525 kts 132°
2026-05-05 18:31 32.80658 26.07278 39117 ft 524 kts 132°
2026-05-05 18:32 32.75815 26.13778 39116 ft 524 kts 132°
2026-05-05 18:32 32.70987 26.20246 39116 ft 524 kts 132°
2026-05-05 18:33 32.66158 26.26705 39122 ft 524 kts 133°
2026-05-05 18:33 32.61307 26.33182 39127 ft 523 kts 133°
2026-05-05 18:34 32.56485 26.39609 39124 ft 523 kts 133°
2026-05-05 18:34 32.51648 26.46044 39121 ft 523 kts 133°
2026-05-05 18:35 32.46796 26.52486 39118 ft 523 kts 133°
2026-05-05 18:35 32.41973 26.58881 39120 ft 523 kts 133°
2026-05-05 18:36 32.37114 26.65312 39126 ft 522 kts 133°
2026-05-05 18:36 32.32291 26.71684 39124 ft 522 kts 133°
2026-05-05 18:37 32.27425 26.78101 39125 ft 522 kts 133°
2026-05-05 18:37 32.22589 26.84469 39110 ft 522 kts 133°
2026-05-05 18:38 32.17727 26.90859 39121 ft 521 kts 133°
2026-05-05 18:38 32.12874 26.97227 39122 ft 521 kts 133°
2026-05-05 18:39 32.08049 27.03546 39121 ft 521 kts 133°
2026-05-05 18:39 32.03181 27.09911 39122 ft 521 kts 133°
2026-05-05 18:40 31.98351 27.16216 39121 ft 521 kts 133°
2026-05-05 18:40 31.93490 27.22551 39126 ft 520 kts 134°
2026-05-05 18:41 31.88629 27.28875 39130 ft 520 kts 134°
2026-05-05 18:41 31.83798 27.35150 39129 ft 520 kts 134°
2026-05-05 18:42 31.78922 27.41471 39135 ft 519 kts 134°
2026-05-05 18:42 31.74099 27.47713 39131 ft 519 kts 135°
2026-05-05 18:43 31.69236 27.53994 39132 ft 520 kts 134°
2026-05-05 18:43 31.64344 27.60305 39135 ft 521 kts 134°
2026-05-05 18:44 31.59486 27.66562 39138 ft 521 kts 135°
2026-05-05 18:44 31.54595 27.72851 39132 ft 521 kts 135°
2026-05-05 18:45 31.49720 27.79108 39141 ft 522 kts 135°
2026-05-05 18:45 31.44787 27.85428 39134 ft 523 kts 135°
2026-05-05 18:46 31.39883 27.91700 39133 ft 523 kts 135°
2026-05-05 18:46 31.34985 27.97956 39135 ft 523 kts 135°
2026-05-05 18:47 31.30054 28.04243 39143 ft 523 kts 135°
2026-05-05 18:47 31.25127 28.10515 39140 ft 524 kts 135°
2026-05-05 18:48 31.20218 28.16751 39139 ft 524 kts 135°
2026-05-05 18:48 31.15268 28.23033 39131 ft 523 kts 135°
2026-05-05 18:49 31.10353 28.29258 39138 ft 523 kts 135°
2026-05-05 18:49 31.05423 28.35490 39135 ft 523 kts 135°
2026-05-05 18:50 31.00471 28.41746 39134 ft 522 kts 136°
2026-05-05 18:50 30.95538 28.47962 39132 ft 522 kts 136°
2026-05-05 18:51 30.90631 28.54134 39132 ft 522 kts 136°
2026-05-05 18:51 30.85704 28.60322 39127 ft 522 kts 136°
2026-05-05 18:52 30.81583 28.65491 39115 ft 521 kts 136°
2026-05-05 18:52 30.76666 28.71649 39126 ft 520 kts 136°
2026-05-05 18:53 30.70928 28.78824 39128 ft 520 kts 136°
2026-05-05 18:53 30.66823 28.83947 39126 ft 520 kts 137°
2026-05-05 18:54 30.61869 28.90122 39118 ft 520 kts 137°
2026-05-05 18:54 30.56953 28.96239 39116 ft 520 kts 137°
2026-05-05 18:55 30.52007 29.02386 39115 ft 519 kts 137°
2026-05-05 18:55 30.47097 29.08476 39092 ft 519 kts 137°
2026-05-05 18:56 30.42149 29.14604 39116 ft 518 kts 137°
2026-05-05 18:56 30.37241 29.20671 39116 ft 518 kts 137°
2026-05-05 18:57 30.32304 29.26765 39117 ft 518 kts 137°
2026-05-05 18:57 30.27404 29.32806 39116 ft 516 kts 137°
2026-05-05 18:58 30.22480 29.38864 39117 ft 515 kts 137°
2026-05-05 18:58 30.17571 29.44895 39114 ft 515 kts 137°
2026-05-05 18:59 30.12647 29.50933 39112 ft 515 kts 137°
2026-05-05 18:59 30.07737 29.56947 39100 ft 515 kts 138°
2026-05-05 19:00 30.02807 29.62977 39110 ft 515 kts 138°
2026-05-05 19:00 29.97906 29.68960 39111 ft 515 kts 138°
2026-05-05 19:01 29.92976 29.74970 39105 ft 515 kts 138°
2026-05-05 19:01 29.88073 29.80938 39105 ft 515 kts 138°
2026-05-05 19:02 29.83130 29.86946 39101 ft 514 kts 139°
2026-05-05 19:02 29.78227 29.92896 39102 ft 514 kts 139°
2026-05-05 19:03 29.73294 29.98873 39100 ft 514 kts 139°
2026-05-05 19:03 29.68352 30.04853 39099 ft 514 kts 139°
2026-05-05 19:04 29.63450 30.10775 39100 ft 514 kts 139°
2026-05-05 19:04 29.58505 30.16739 39100 ft 513 kts 139°
2026-05-05 19:05 29.53599 30.22650 39099 ft 513 kts 139°
2026-05-05 19:05 29.48666 30.28582 39100 ft 513 kts 139°
2026-05-05 19:06 29.43751 30.34484 39100 ft 513 kts 139°
2026-05-05 19:06 29.38809 30.40410 39079 ft 513 kts 140°
2026-05-05 19:07 29.33897 30.46281 39104 ft 511 kts 140°
2026-05-05 19:07 29.28954 30.52177 39102 ft 511 kts 140°
2026-05-05 19:08 29.24042 30.58026 39098 ft 511 kts 140°
2026-05-05 19:08 29.19126 30.63873 39106 ft 511 kts 140°
2026-05-05 19:09 29.14177 30.69751 39088 ft 511 kts 140°
2026-05-05 19:09 29.09256 30.75588 39108 ft 511 kts 140°
2026-05-05 19:10 29.04327 30.81426 39081 ft 511 kts 140°
2026-05-05 19:10 28.99368 30.87290 39106 ft 510 kts 140°
2026-05-05 19:11 28.94460 30.93087 39106 ft 510 kts 140°
2026-05-05 19:11 28.89517 30.98916 39101 ft 510 kts 141°
2026-05-05 19:12 28.84579 31.04731 39105 ft 510 kts 141°
2026-05-05 19:12 28.79666 31.10508 39105 ft 510 kts 141°
2026-05-05 19:13 28.74705 31.16333 39107 ft 510 kts 141°
2026-05-05 19:13 28.69793 31.22106 39107 ft 510 kts 140°
2026-05-05 19:14 28.64990 31.28059 39101 ft 512 kts 139°
2026-05-05 19:14 28.60216 31.34127 39105 ft 512 kts 139°
2026-05-05 19:15 28.55484 31.40123 39107 ft 511 kts 139°
2026-05-05 19:15 28.50713 31.46129 39105 ft 511 kts 139°
2026-05-05 19:16 28.45925 31.52131 39105 ft 511 kts 139°
2026-05-05 19:16 28.41162 31.58095 39102 ft 511 kts 139°
2026-05-05 19:17 28.36375 31.64078 39108 ft 511 kts 140°
2026-05-05 19:17 28.31585 31.70055 39076 ft 511 kts 140°
2026-05-05 19:18 28.26819 31.75995 39104 ft 511 kts 140°
2026-05-05 19:18 28.22044 31.81938 39103 ft 510 kts 140°
2026-05-05 19:19 28.17271 31.87871 39108 ft 510 kts 140°
2026-05-05 19:19 28.12481 31.93815 39107 ft 509 kts 140°
2026-05-05 19:20 28.07719 31.99716 39107 ft 509 kts 140°
2026-05-05 19:20 28.03158 32.05922 39107 ft 520 kts 129°
2026-05-05 19:21 27.99468 32.13013 39106 ft 524 kts 126°
2026-05-05 19:21 27.95992 32.20243 39079 ft 525 kts 125°
2026-05-05 19:22 27.92548 32.27482 39092 ft 524 kts 125°
2026-05-05 19:22 27.89053 32.34765 39043 ft 524 kts 125°
2026-05-05 19:23 27.85566 32.41975 39047 ft 525 kts 126°
2026-05-05 19:23 27.82067 32.49187 39041 ft 525 kts 126°
2026-05-05 19:24 27.78546 32.56432 39043 ft 525 kts 126°
2026-05-05 19:24 27.75038 32.63640 39031 ft 525 kts 126°
2026-05-05 19:25 27.71530 32.70836 39041 ft 525 kts 126°
2026-05-05 19:25 27.67992 32.78083 39033 ft 525 kts 126°
2026-05-05 19:26 27.64474 32.85275 39035 ft 525 kts 126°
2026-05-05 19:26 27.60936 32.92496 39025 ft 525 kts 126°
2026-05-05 19:27 27.57417 32.99665 39029 ft 525 kts 126°
2026-05-05 19:27 27.53860 33.06900 39024 ft 525 kts 126°
2026-05-05 19:28 27.50325 33.14080 39026 ft 525 kts 126°
2026-05-05 19:28 27.46788 33.21251 39029 ft 525 kts 127°
2026-05-05 19:29 27.43238 33.28439 39021 ft 524 kts 127°
2026-05-05 19:29 27.39703 33.35583 39022 ft 524 kts 127°
2026-05-05 19:30 27.36140 33.42771 39017 ft 524 kts 127°
2026-05-05 19:30 27.32597 33.49903 39008 ft 524 kts 127°
2026-05-05 19:31 27.29026 33.57082 39007 ft 524 kts 127°
2026-05-05 19:31 27.25478 33.64202 39007 ft 524 kts 127°
2026-05-05 19:32 27.21921 33.71329 38999 ft 524 kts 127°
2026-05-05 19:32 27.18379 33.78493 39019 ft 527 kts 123°
2026-05-05 19:33 27.15442 33.86115 39020 ft 532 kts 119°
2026-05-05 19:33 27.12693 33.93807 39015 ft 533 kts 118°
2026-05-05 19:34 27.09956 34.01568 39006 ft 533 kts 119°
2026-05-05 19:35 27.05851 34.13120 38989 ft 533 kts 119°
2026-05-05 19:35 27.03083 34.20856 38985 ft 533 kts 119°
2026-05-05 19:36 27.00306 34.28596 38981 ft 534 kts 119°
2026-05-05 19:36 26.97532 34.36308 38982 ft 534 kts 119°
2026-05-05 19:37 26.94743 34.44050 38982 ft 534 kts 120°
2026-05-05 19:37 26.91965 34.51747 38980 ft 534 kts 120°
2026-05-05 19:38 26.89183 34.59437 38982 ft 535 kts 120°
2026-05-05 19:38 26.86837 34.65912 38980 ft 535 kts 120°
2026-05-05 19:39 26.83591 34.74855 38965 ft 535 kts 120°
2026-05-05 19:39 26.81252 34.81285 38980 ft 535 kts 120°
2026-05-05 19:40 26.78450 34.88975 38979 ft 534 kts 120°
2026-05-05 19:40 26.75632 34.96695 38982 ft 534 kts 120°
2026-05-05 19:41 26.72825 35.04377 38971 ft 535 kts 121°
2026-05-05 19:41 26.70000 35.12093 38973 ft 535 kts 121°
2026-05-05 19:42 26.67192 35.19746 38973 ft 535 kts 121°
2026-05-05 19:42 26.64362 35.27446 38972 ft 535 kts 121°
2026-05-05 19:43 26.61527 35.35141 38969 ft 535 kts 121°
2026-05-05 19:43 26.58707 35.42782 38970 ft 535 kts 121°
2026-05-05 19:44 26.55846 35.50491 38949 ft 534 kts 122°
2026-05-05 19:44 26.52954 35.58094 38957 ft 534 kts 122°
2026-05-05 19:45 26.50021 35.65742 38952 ft 534 kts 122°
2026-05-05 19:45 26.47094 35.73369 38951 ft 534 kts 122°
2026-05-05 19:46 26.44180 35.80964 38947 ft 534 kts 122°
2026-05-05 19:46 26.41268 35.88547 38955 ft 533 kts 122°
2026-05-05 19:47 26.38333 35.96174 38950 ft 533 kts 122°
2026-05-05 19:47 26.35418 36.03736 38949 ft 533 kts 122°
2026-05-05 19:48 26.32485 36.11327 38946 ft 533 kts 122°
2026-05-05 19:48 26.29566 36.18871 38944 ft 533 kts 122°
2026-05-05 19:49 26.26623 36.26461 38929 ft 533 kts 122°
2026-05-05 19:49 26.23684 36.34025 38940 ft 533 kts 122°
2026-05-05 19:50 26.20722 36.41637 38940 ft 534 kts 122°
2026-05-05 19:50 26.18634 36.49672 38938 ft 554 kts 102°
2026-05-05 19:51 26.18776 36.58313 38948 ft 565 kts 89°
2026-05-05 19:51 26.19625 36.67005 38970 ft 567 kts 87°
2026-05-05 19:52 26.20590 36.75755 38934 ft 568 kts 87°
2026-05-05 19:52 26.21502 36.84448 38949 ft 568 kts 88°
2026-05-05 19:53 26.22376 36.93213 38952 ft 568 kts 88°
2026-05-05 19:53 26.23225 37.01939 38958 ft 568 kts 88°
2026-05-05 19:54 26.24069 37.10644 38966 ft 568 kts 88°
2026-05-05 19:54 26.24916 37.19409 38973 ft 567 kts 88°
2026-05-05 19:55 26.25755 37.28123 38963 ft 567 kts 88°
2026-05-05 19:55 26.26591 37.36879 38977 ft 569 kts 88°
2026-05-05 19:56 26.27419 37.45622 38975 ft 569 kts 88°
2026-05-05 19:56 26.28245 37.54376 38975 ft 570 kts 88°
2026-05-05 19:57 26.29070 37.63195 38965 ft 570 kts 88°
2026-05-05 19:57 26.29888 37.71988 38946 ft 570 kts 88°
2026-05-05 19:58 26.30698 37.80754 38958 ft 570 kts 89°
2026-05-05 19:58 26.31506 37.89525 38991 ft 570 kts 89°
2026-05-05 19:59 26.32306 37.98280 38954 ft 570 kts 88°
2026-05-05 19:59 26.33107 38.07091 38965 ft 570 kts 88°
2026-05-05 20:00 26.33895 38.15824 38968 ft 569 kts 89°
2026-05-05 20:00 26.34682 38.24618 38956 ft 568 kts 89°
2026-05-05 20:01 26.35455 38.33326 38961 ft 566 kts 89°
2026-05-05 20:01 26.36224 38.42066 38965 ft 566 kts 89°
2026-05-05 20:02 26.36989 38.50824 38994 ft 566 kts 89°
2026-05-05 20:02 26.37745 38.59535 38973 ft 567 kts 89°
2026-05-05 20:03 26.38502 38.68313 38966 ft 568 kts 89°
2026-05-05 20:03 26.39250 38.77042 38983 ft 566 kts 89°
2026-05-05 20:04 26.39996 38.85807 38982 ft 566 kts 89°
2026-05-05 20:04 26.40729 38.94499 38984 ft 566 kts 89°
2026-05-05 20:05 26.41464 39.03277 38991 ft 566 kts 89°
2026-05-05 20:05 26.42188 39.11994 38991 ft 566 kts 89°
2026-05-05 20:06 26.42914 39.20786 38983 ft 567 kts 89°
2026-05-05 20:06 26.43594 39.29506 38985 ft 566 kts 91°
2026-05-05 20:07 26.44063 39.38271 38982 ft 565 kts 92°
2026-05-05 20:07 26.44464 39.47061 38984 ft 565 kts 92°
2026-05-05 20:08 26.44872 39.55780 38990 ft 565 kts 92°
2026-05-05 20:08 26.45298 39.64570 38987 ft 566 kts 92°
2026-05-05 20:09 26.45724 39.73341 39002 ft 566 kts 92°
2026-05-05 20:09 26.46145 39.82118 38982 ft 566 kts 92°
2026-05-05 20:10 26.46557 39.90865 38996 ft 567 kts 92°
2026-05-05 20:10 26.46965 39.99632 39000 ft 567 kts 92°
2026-05-05 20:11 26.47369 40.08426 38998 ft 567 kts 92°
2026-05-05 20:11 26.47768 40.17237 38997 ft 568 kts 92°
2026-05-05 20:12 26.48159 40.26000 38971 ft 568 kts 92°
2026-05-05 20:12 26.48549 40.34826 39000 ft 567 kts 92°
2026-05-05 20:13 26.48929 40.43583 38987 ft 568 kts 92°
2026-05-05 20:13 26.49307 40.52402 38985 ft 567 kts 92°
2026-05-05 20:14 26.49679 40.61191 38987 ft 566 kts 92°
2026-05-05 20:14 26.50040 40.69913 38988 ft 565 kts 92°
2026-05-05 20:15 26.50400 40.78728 38989 ft 565 kts 92°
2026-05-05 20:15 26.50751 40.87481 38991 ft 565 kts 92°
2026-05-05 20:16 26.51098 40.96235 38989 ft 566 kts 92°
2026-05-05 20:16 26.51280 41.04994 38997 ft 560 kts 99°
2026-05-05 20:17 26.50809 41.13646 38981 ft 559 kts 100°
2026-05-05 20:17 26.50202 41.22334 38989 ft 559 kts 101°
2026-05-05 20:18 26.49571 41.30919 38981 ft 559 kts 101°
2026-05-05 20:18 26.48942 41.39557 38969 ft 559 kts 101°
2026-05-05 20:19 26.48314 41.48222 38973 ft 559 kts 101°
2026-05-05 20:19 26.47687 41.56861 38953 ft 559 kts 101°
2026-05-05 20:20 26.47050 41.65549 38960 ft 559 kts 101°
2026-05-05 20:20 26.46414 41.74153 38969 ft 559 kts 101°
2026-05-05 20:21 26.45768 41.82831 38961 ft 559 kts 101°
2026-05-05 20:21 26.45120 41.91438 38960 ft 560 kts 101°
2026-05-05 20:22 26.44461 42.00129 38949 ft 560 kts 101°
2026-05-05 20:22 26.43800 42.08783 38971 ft 561 kts 101°
2026-05-05 20:23 26.43130 42.17487 38968 ft 561 kts 101°
2026-05-05 20:23 26.42459 42.26142 38967 ft 560 kts 101°
2026-05-05 20:24 26.41787 42.34753 38979 ft 558 kts 101°
2026-05-05 20:24 26.41109 42.43341 38957 ft 556 kts 101°
2026-05-05 20:25 26.40430 42.51899 38976 ft 553 kts 101°
2026-05-05 20:25 26.39745 42.60443 38973 ft 554 kts 101°
2026-05-05 20:26 26.39050 42.69037 38968 ft 554 kts 101°
2026-05-05 20:26 26.38356 42.77572 38974 ft 553 kts 101°
2026-05-05 20:27 26.37659 42.86100 38972 ft 553 kts 101°
2026-05-05 20:27 26.36957 42.94613 38969 ft 553 kts 102°
2026-05-05 20:28 26.36248 43.03141 38951 ft 553 kts 101°
2026-05-05 20:28 26.35654 43.10247 38965 ft 552 kts 102°
2026-05-05 20:29 26.34933 43.18805 38955 ft 552 kts 102°
2026-05-05 20:29 26.34211 43.27320 38977 ft 552 kts 102°
2026-05-05 20:30 26.33480 43.35849 38947 ft 555 kts 102°
2026-05-05 20:30 26.32743 43.44421 38934 ft 556 kts 101°
2026-05-05 20:31 26.32003 43.52964 38946 ft 556 kts 102°
2026-05-05 20:31 26.31257 43.61533 38945 ft 556 kts 102°
2026-05-05 20:32 26.30502 43.70125 38938 ft 556 kts 102°
2026-05-05 20:32 26.29163 43.78473 38939 ft 540 kts 117°
2026-05-05 20:33 26.26175 43.86057 38938 ft 530 kts 125°
2026-05-05 20:33 26.22839 43.93351 38936 ft 529 kts 126°
2026-05-05 20:34 26.19441 44.00601 38934 ft 529 kts 126°
2026-05-05 20:34 26.16055 44.07873 38930 ft 529 kts 126°
2026-05-05 20:35 26.12692 44.15142 38924 ft 530 kts 126°
2026-05-05 20:35 26.09327 44.22425 38926 ft 530 kts 126°
2026-05-05 20:36 26.05945 44.29732 38920 ft 529 kts 126°
2026-05-05 20:36 26.02577 44.36994 38917 ft 529 kts 126°
2026-05-05 20:37 25.99216 44.44230 38909 ft 528 kts 126°
2026-05-05 20:37 25.95853 44.51456 38693 ft 527 kts 126°
2026-05-05 20:37 25.94158 44.55093 38445 ft 527 kts 126°
2026-05-05 20:38 25.92468 44.58713 38179 ft 527 kts 126°
2026-05-05 20:38 25.90792 44.62301 37889 ft 528 kts 126°
2026-05-05 20:38 25.89106 44.65909 37631 ft 528 kts 126°
2026-05-05 20:38 25.87401 44.69555 37361 ft 528 kts 126°
2026-05-05 20:39 25.85724 44.73138 37115 ft 528 kts 126°
2026-05-05 20:39 25.84024 44.76764 36860 ft 528 kts 126°
2026-05-05 20:39 25.82316 44.80401 36617 ft 529 kts 126°
2026-05-05 20:39 25.80632 44.83986 36368 ft 529 kts 126°
2026-05-05 20:40 25.78925 44.87618 36131 ft 530 kts 126°
2026-05-05 20:40 25.77218 44.91245 35868 ft 530 kts 126°
2026-05-05 20:40 25.75494 44.94905 35113 ft 534 kts 125°
2026-05-05 20:40 25.73769 44.98558 34160 ft 541 kts 125°
2026-05-05 20:41 25.72013 45.02278 33406 ft 541 kts 124°
2026-05-05 20:41 25.70294 45.05929 32725 ft 539 kts 124°
2026-05-05 20:41 25.68557 45.09609 32016 ft 538 kts 124°
2026-05-05 20:41 25.66827 45.13270 31267 ft 536 kts 124°
2026-05-05 20:42 25.65147 45.16838 30718 ft 523 kts 124°
2026-05-05 20:42 25.63443 45.20437 29621 ft 530 kts 123°
2026-05-05 20:42 25.61712 45.24084 28555 ft 535 kts 123°
2026-05-05 20:42 25.59988 45.27727 27888 ft 529 kts 123°
2026-05-05 20:43 25.58308 45.31277 27346 ft 521 kts 123°
2026-05-05 20:43 25.56621 45.34837 26744 ft 515 kts 123°
2026-05-05 20:43 25.54964 45.38330 26155 ft 509 kts 122°
2026-05-05 20:43 25.53325 45.41781 25557 ft 503 kts 122°
2026-05-05 20:44 25.51706 45.45186 25013 ft 496 kts 122°
2026-05-05 20:44 25.50108 45.48545 24504 ft 488 kts 122°
2026-05-05 20:44 25.48556 45.51804 24005 ft 481 kts 122°
2026-05-05 20:44 25.47005 45.55060 23514 ft 474 kts 122°
2026-05-05 20:45 25.43998 45.61368 22800 ft 451 kts 122°
2026-05-05 20:45 25.42546 45.64408 22342 ft 443 kts 122°
2026-05-05 20:45 25.41116 45.67399 21911 ft 436 kts 122°
2026-05-05 20:46 25.39711 45.70337 21459 ft 429 kts 122°
2026-05-05 20:46 25.38341 45.73199 21022 ft 423 kts 122°
2026-05-05 20:46 25.36971 45.76061 20572 ft 417 kts 122°
2026-05-05 20:46 25.35695 45.78931 20232 ft 411 kts 116°
2026-05-05 20:47 25.34712 45.81858 20061 ft 401 kts 113°
2026-05-05 20:47 25.33821 45.84732 19889 ft 389 kts 113°
2026-05-05 20:47 25.32964 45.87522 19739 ft 377 kts 113°
2026-05-05 20:47 25.32141 45.90195 19602 ft 366 kts 113°
2026-05-05 20:48 25.31327 45.92826 19424 ft 357 kts 113°
2026-05-05 20:48 25.30521 45.95420 19068 ft 355 kts 113°
2026-05-05 20:48 25.29712 45.98013 18715 ft 353 kts 114°
2026-05-05 20:48 25.28921 46.00553 18512 ft 346 kts 114°
2026-05-05 20:49 25.28150 46.03027 18349 ft 344 kts 114°
2026-05-05 20:49 25.27369 46.05528 18199 ft 344 kts 114°
2026-05-05 20:49 25.26586 46.08031 18023 ft 343 kts 114°
2026-05-05 20:49 25.25805 46.10529 17860 ft 343 kts 114°
2026-05-05 20:50 25.25026 46.13020 17711 ft 342 kts 114°
2026-05-05 20:50 25.24248 46.15505 17551 ft 341 kts 114°
2026-05-05 20:50 25.23481 46.17957 17394 ft 341 kts 113°
2026-05-05 20:50 25.22707 46.20425 17235 ft 340 kts 113°
2026-05-05 20:51 25.21929 46.22909 17093 ft 340 kts 113°
2026-05-05 20:51 25.21161 46.25358 16930 ft 339 kts 113°
2026-05-05 20:51 25.20388 46.27822 16776 ft 339 kts 113°
2026-05-05 20:51 25.19616 46.30279 16624 ft 338 kts 113°
2026-05-05 20:52 25.18846 46.32730 16467 ft 337 kts 113°
2026-05-05 20:52 25.18084 46.35154 16315 ft 336 kts 113°
2026-05-05 20:52 25.17320 46.37582 16162 ft 335 kts 112°
2026-05-05 20:52 25.16554 46.40011 16008 ft 334 kts 113°
2026-05-05 20:53 25.15567 46.42305 15844 ft 327 kts 128°
2026-05-05 20:53 25.13991 46.44051 15727 ft 318 kts 148°
2026-05-05 20:53 25.12121 46.45350 15573 ft 316 kts 153°
2026-05-05 20:53 25.10229 46.46538 15420 ft 317 kts 153°
2026-05-05 20:54 25.08299 46.47739 15288 ft 317 kts 153°
2026-05-05 20:54 25.06374 46.48945 15142 ft 317 kts 153°
2026-05-05 20:54 25.04461 46.50151 14987 ft 315 kts 153°
2026-05-05 20:54 25.02586 46.51337 14592 ft 315 kts 152°
2026-05-05 20:55 25.00689 46.52540 14156 ft 315 kts 152°
2026-05-05 20:55 24.98783 46.53749 13733 ft 314 kts 152°
2026-05-05 20:55 24.96888 46.54953 13341 ft 312 kts 152°
2026-05-05 20:55 24.95020 46.56139 12965 ft 305 kts 152°
2026-05-05 20:56 24.93186 46.57301 12346 ft 302 kts 151°
2026-05-05 20:56 24.91391 46.58439 11696 ft 301 kts 151°
2026-05-05 20:56 24.89573 46.59588 11082 ft 299 kts 151°
2026-05-05 20:56 24.87775 46.60726 10511 ft 296 kts 150°
2026-05-05 20:57 24.86029 46.61830 10259 ft 281 kts 150°
2026-05-05 20:57 24.84373 46.62876 10023 ft 267 kts 150°
2026-05-05 20:57 24.82802 46.63867 9649 ft 261 kts 150°
2026-05-05 20:57 24.81303 46.64812 9161 ft 259 kts 151°
2026-05-05 20:58 24.79732 46.65802 8677 ft 258 kts 150°
2026-05-05 20:58 24.78218 46.66755 8351 ft 248 kts 150°
2026-05-05 20:58 24.76732 46.67691 7851 ft 244 kts 150°
2026-05-05 20:58 24.75307 46.68717 7280 ft 244 kts 139°
2026-05-05 20:59 24.74231 46.70153 6721 ft 244 kts 117°
2026-05-05 20:59 24.73830 46.71913 6212 ft 241 kts 90°
2026-05-05 20:59 24.74304 46.73653 5668 ft 240 kts 55°
2026-05-05 20:59 24.75430 46.74990 5197 ft 240 kts 42°
2026-05-05 21:00 24.76687 46.76207 4862 ft 239 kts 40°
2026-05-05 21:00 24.77904 46.77357 4725 ft 228 kts 39°
2026-05-05 21:00 24.79087 46.78483 4643 ft 216 kts 40°
2026-05-05 21:00 24.80235 46.79489 4451 ft 207 kts 27°
2026-05-05 21:01 24.81623 46.79726 4196 ft 202 kts 353°
2026-05-05 21:01 24.82967 46.79412 4083 ft 193 kts 342°
2026-05-05 21:01 24.84135 46.78808 4002 ft 182 kts 331°
2026-05-05 21:01 24.85178 46.78137 4006 ft 168 kts 330°
2026-05-05 21:02 24.86159 46.77516 3893 ft 159 kts 331°
2026-05-05 21:02 24.87107 46.76921 3710 ft 155 kts 331°
2026-05-05 21:02 24.88043 46.76328 3498 ft 155 kts 331°
2026-05-05 21:02 24.88981 46.75733 3320 ft 156 kts 332°
2026-05-05 21:03 24.89912 46.75131 3122 ft 155 kts 329°
2026-05-05 21:03 24.90846 46.74534 2899 ft 155 kts 332°
2026-05-05 21:03 24.91776 46.73931 2673 ft 156 kts 330°
2026-05-05 21:03 24.92712 46.73342 2468 ft 155 kts 330°
2026-05-05 21:04 24.93645 46.72752 2302 ft 155 kts 332°
2026-05-05 21:04 24.94577 46.72166 2056 ft 152 kts 330°
2026-05-05 21:04 24.95390 46.71653 2045 ft 111 kts 330°
2026-05-05 21:04 24.95886 46.71341 2042 ft 54 kts 330°
2026-05-05 21:05 24.96102 46.71202 2042 ft 32 kts 330°
2026-05-05 21:05 24.96292 46.71082 2042 ft 31 kts 330°
2026-05-05 21:05 24.96460 46.70939 2042 ft 28 kts 312°
2026-05-05 21:05 24.96513 46.70851 2043 ft 10 kts 297°
2026-05-05 21:06 24.96530 46.70787 2041 ft 0 kts 278°
2026-05-05 21:06 24.96531 46.70783 2042 ft 2 kts 278°
2026-05-05 21:07 24.96528 46.70721 2040 ft 14 kts 259°
2026-05-05 21:07 24.96472 46.70597 2041 ft 20 kts 239°
2026-05-05 21:07 24.96400 46.70462 2043 ft 21 kts 239°
2026-05-05 21:07 24.96291 46.70420 2038 ft 19 kts 150°
2026-05-05 21:08 24.96177 46.70494 2042 ft 20 kts 150°
2026-05-05 21:08 24.96055 46.70572 2043 ft 21 kts 149°
2026-05-05 21:08 24.95928 46.70652 2039 ft 22 kts 149°
2026-05-05 21:08 24.95822 46.70721 2044 ft 15 kts 149°
2026-05-05 21:09 24.95771 46.70758 2041 ft 5 kts 141°
2026-05-05 21:09 24.95740 46.70769 2041 ft 4 kts 187°
2026-05-05 21:09 24.95718 46.70749 2040 ft 3 kts 231°
2026-05-05 21:09 24.95705 46.70725 2041 ft 4 kts 241°
2026-05-05 21:10 24.95696 46.70707 2038 ft 1 kts 240°
2026-05-05 21:10 24.95692 46.70700 2044 ft 1 kts 240°
2026-05-05 21:10 24.95689 46.70694 2044 ft 0 kts 240°